www.pogodaiklimat.ru

Погода и климат >> Архив погоды >> Индия >> Карнатака >> Белгаум аэропорт


ПОГОДА в Белгаум аэропорту

  • Прогноз погоды в Белгаум аэропорту
  • Монитор погоды в Белгаум аэропорту

АРХИВ ПОГОДЫ в Белгаум аэропорту

Время (UTC), дата Ветер
(напр.,м/с)
 
Видим.   Явления Облачность Т
(С)
Тd
(С)
f
(%)
Тe
(С)
Тes
(С)
Комфортность P
(гПа)
Po
(гПа)
Тmin
(С)
Tmax
(С)
R
(мм)
R24
(мм)
S
(см)
06 15.08 З 5 4000 м {морось} 9/6 210 м
[St Ac trans Ci fib]
+25.0 +22.1 84 +32 +35 очень
душно
1008.2 926.8 0.1
09 15.08 З 4 4000 м {дождь} 9/6 210 м
[St Ac trans Ci fib]
+25.2 +22.0 82 +32 +35 очень
душно
1006.4 925.2 2
12 15.08 З 4 4000 м {дождь} 9/5 210 м
[St Ac trans Ci fib]
+24.2 +21.6 85 +31 +31 очень
душно
1005.8 924.6 +26.1 2
15 15.08 З 3 4000 м 9/5 210 м
[St Ac trans Ci fib]
+22.4 +20.9 91 +29 +29 очень
душно
1008.0 926.0 2
18 15.08 З 2 4000 м 10/6 210 м
[St Ac As]
+22.2 +21.3 95 +29 +29 очень
душно
1008.9 926.9 2
21 15.08 З 3 4000 м 10/6 210 м
[St Ac As]
+22.0 +21.1 95 +28 +28 душно 1008.1 925.8 2
00 16.08 З 3 4000 м 9/6 210 м
[St Ac trans Ci fib]
+22.0 +21.4 96 +29 +29 очень
душно
1007.6 925.3 2
03 16.08 З 4 4000 м 9/6 210 м
[Frnb Ac trans Ci fib]
+23.4 +21.0 86 +31 +32 очень
душно
1008.3 926.6 +21.4 +26.1 2
06 16.08 З 4 4000 м {морось} 9/6 240 м
[Frnb Ac trans Ci fib]
+26.4 +21.1 73 +33 +37 очень
душно
1007.5 926.6 0.0
09 16.08 З 5 4000 м {морось} 9/6 240 м
[St Ac trans Ci fib]
+26.6 +22.0 76 +34 +37 очень
душно
1005.8 925.0 0.1
12 16.08 З 5 4000 м {морось} 9/6 240 м
[St Ac trans Ci fib]
+25.0 +21.2 79 +32 +32 очень
душно
1005.2 924.0 +27.6 0.1
15 16.08 З 3 4000 м в посл. час морось 9/6 240 м
[Frnb Ac trans Ci fib]
+22.6 +21.4 93 +30 +30 очень
душно
1007.8 925.8 0.2
18 16.08 З 2 4000 м {морось} 8/5 240 м
[St Ac trans Ci fib]
+21.8 +20.3 91 +28 +28 душно 1009.0 926.7 0.2
21 16.08 З 2 4000 м 9/6 240 м
[St Ac trans Ci fib]
+21.4 +20.2 93 +27 +27 душно 1007.6 925.3 0.2
00 17.08 З 2 4000 м 8/5 240 м
[St Ac trans Ci fib]
+21.0 +20.1 95 +27 +27 душно 1007.2 924.8 0.2
03 17.08 З 4 4000 м 9/6 240 м
[St Ac trans Ci fib]
+23.0 +20.6 86 +30 +31 очень
душно
1007.4 925.4 +20.3 +27.6 0.2
06 17.08 З 4 10 км 9/6 240 м
[St Ac trans Ci fib]
+27.0 +21.5 72 +34 +38 очень
душно
1006.8 925.9
09 17.08 З 3 4000 м в посл. час дождь 9/5 210 м
[Cu Sc Ac trans Ci fib]
+25.0 +23.0 89 +33 +38 очень
душно
1005.9 924.7
12 17.08 З 5 4000 м {дождь} 9/5 210 м
[Cu Sc Ac trans Ci fib]
+25.8 +20.8 74 +32 +33 очень
душно
1004.9 923.9 +27.3 3
15 17.08 З 2 4000 м 6/5 210 м
[St Ci fib]
+22.6 +21.1 91 +30 +30 очень
душно
1007.9 925.9 3
18 17.08 З 2 4000 м 8/3 450 м
[Sc Cs]
+21.8 +20.9 95 +28 +28 душно 1009.2 926.9 3
21 17.08 З 2 4000 м 8/4 450 м
[Sc Ac trans Cs]
+21.4 +20.5 95 +27 +27 душно 1007.7 925.4 3
00 18.08 З 2 4000 м 8/5 210 м
[St Cs]
+21.0 +20.1 95 +27 +27 душно 1008.0 925.4 3
03 18.08 З 4 4000 м 8/5 210 м
[St Ac trans Ci fib]
+23.0 +21.2 90 +31 +32 очень
душно
1008.6 926.6 +21.2 +27.3 3
06 18.08 З 4 10 км 9/5 240 м
[St Ac trans Cs]
+26.8 +21.0 71 +34 +38 очень
душно
1007.8 926.9
09 18.08 З 5 4000 м слаб. морось 9/6 240 м
[Frnb Ac trans Ci fib]
+26.4 +21.5 74 +34 +36 очень
душно
1006.8 925.9 0.0
12 18.08 З 3 4000 м {морось} 9/6 240 м
[St Ac trans Ci fib]
+24.8 +20.7 78 +31 +31 очень
душно
1006.6 925.2 +21.2 +27.5 0.0
15 18.08 З 2 4000 м 8/4 450 м
[Sc Ac trans Ci fib]
+22.8 +20.7 88 +30 +30 очень
душно
1009.1 927.0 0.0
18 18.08 З 3 4000 м 9/5 450 м
[Sc Ac trans Ci fib]
+22.0 +20.8 93 +28 +28 душно 1010.8 928.3 0.0
21 18.08 штиль 0 4000 м 9/4 450 м
[Sc Ac trans Ci fib]
+21.4 +20.8 96 +27 +27 душно 1009.1 926.8 0.0
00 19.08 штиль 0 4000 м 10/5 450 м
[Sc Ac As]
+21.0 +20.4 96 +26 +26 душно 1008.6 926.0 0.0
03 19.08 З 2 4000 м 9/4 450 м
[Sc Ac trans Ci fib]
+22.8 +20.7 88 +30 +32 очень
душно
1008.8 926.8 +20.5 +27.5 0.0
06 19.08 СЗ 2 10 км 9/6 360 м
[Cu Sc Ac trans Ci fib]
+26.0 +21.0 74 +33 +38 очень
душно
1009.4 928.1
09 19.08 ЮЗ 2 4000 м 8/8 600 м
[Cu Sc]
+32.4 +17.8 42 +37 +40 очень
душно
1006.9 926.2 230
12 19.08 З 4 10 км 9/5 210 м
[Cu Sc Ac trans Ci fib]
+24.6 +22.3 87 +32 +32 очень
душно
1007.1 925.7 +29.8
21 19.08 З 2 4000 м 8/0 2000 м
[Ac trans Cs]
+21.4 +20.2 93 +27 +27 душно 1008.8 926.5
00 20.08 штиль 0 4000 м мгла 9/6 210 м
[St Ac trans Cs]
+21.0 +20.1 95 +26 +26 душно 1008.8 926.2
03 20.08 З 2 4000 м 6/5 210 м
[St Cs]
+23.0 +20.3 85 +30 +33 очень
душно
1010.4 928.2 +20.3 +29.8
06 20.08 З 3 10 км 8/6 360 м
[Cu Sc Cs]
+27.0 +20.5 68 +34 +40 очень
душно
1009.2 928.3
09 20.08 З 3 10 км 8/6 360 м
[Cu Sc Ci fib]
+29.4 +21.9 64 +38 +43 очень
душно
1005.6 925.6
12 20.08 З 4 10 км 6/5 360 м
[Cu Sc Ci fib]
+27.2 +21.1 69 +34 +35 очень
душно
1004.3 923.9 +29.8
15 20.08 З 2 4000 м 5/4 450 м
[Sc Ci fib]
+23.8 +21.2 85 +30 +30 очень
душно
1008.3 926.6
18 20.08 З 2 4000 м 6/4 450 м
[Sc Ac trans Ci fib]
+22.0 +20.5 91 +28 +28 душно 1009.7 927.2
21 20.08 штиль 0 4000 м 9/5 210 м
[St Ac trans Ci fib]
+21.6 +20.4 93 +27 +27 душно 1008.3 926.0
00 21.08 З 3 4000 м 6/3 450 м
[Sc Ci fib]
+21.0 +19.8 93 +26 +26 душно 1008.5 925.9
03 21.08 З 2 4000 м 8/5 210 м
[St Ac trans Ci fib]
+23.0 +20.9 88 +30 +32 очень
душно
1008.6 926.6 +20.4 +29.8
06 21.08 З 3 10 км 9/6 360 м
[Cu Sc Ac trans Ci fib]
+27.8 +19.8 62 +34 +38 очень
душно
1007.4 926.8
09 21.08 З 5 10 км 8/6 360 м
[Cu Sc Ac trans Ci fib]
+28.6 +20.1 60 +35 +38 очень
душно
1005.6 925.3
12 21.08 З 5 4000 м {дождь} 9/6 360 м
[Cu Sc Ac trans Ci fib]
+26.2 +22.2 79 +34 +34 очень
душно
1005.4 924.7 +29.2 2
15 21.08 З 2 4000 м 6/5 210 м
[St Ci fib]
+23.0 +20.6 86 +30 +30 очень
душно
1008.4 926.4 2
18 21.08 З 2 4000 м 6/5 210 м
[St Ci fib]
+22.0 +20.5 91 +28 +28 душно 1009.6 927.1 2
21 21.08 штиль 0 4000 м 8/4 450 м
[Sc Cs]
+21.6 +20.4 93 +27 +27 душно 1008.1 925.8 2
00 22.08 штиль 0 4000 м 8/4 450 м
[Sc Cs]
+21.0 +19.8 93 +26 +26 душно 1007.9 925.3 2
03 22.08 З 2 4000 м 8/5 210 м
[St Ac trans Ci fib]
+23.0 +20.6 86 +30 +32 очень
душно
1008.7 926.7 +20.5 +29.2 2

 

Местоположение метеостанции Белгаум аэропорт (Карнатака, Индия): широта 15.85 долгота 74.62 высота над уровнем моря 747 м.

В архиве по умолчанию представлена погода в Белгаум аэропорту за последнюю неделю. Архивные данные за месяц целиком и за предыдущие месяцы, начиная с января 2011 года, Вы можете получить, выбрав интересующий диапазон дат из раскрывающегося списка и нажав кнопку "Ввод!".


*Определитесь, кто Вы:
робот инопланетянин человек

Внимание! Время в таблицах - всемирное. Для получения местного времени необходимо прибавить поправку, которая равна 5.5 ч.

Смотрите также архив погоды в соседних городах и на ближайших метеорологических станциях:

Погода в Белгауме (Карнатака, Индия) (10 км)
Погода в Дхарваде (Карнатака, Индия) (56 км)
Погода в Панаджи (Гоа, Индия) (95 км)
Погода в Мормугао (Гоа, Индия) (102 км)
Погода в Колхапуре (Махараштра, Индия) (103 км)
Погода в Венгерле (Махараштра, Индия) (106 км)
Погода в Сангли (Махараштра, Индия) (111 км)
Погода в Гадахе (Карнатака, Индия) (118 км)
Погода в Карваре (Карнатака, Индия) (130 км)
Погода в Хавери (Карнатака, Индия) (145 км)

Пояснения к столбцам:

Ветер - указаны скорость ветра в м/с - средняя за 10 мин, порывы в срок и между сроками (в фигурных скобках) и направление, откуда дует ветер: С - северный, СВ - северо-восточный, В - восточный, ЮВ - юго-восточный, Ю - южный, ЮЗ - юго-западный, З - западный, СЗ - северо-западный.
Видимость - горизонтальная дальность видимости в метрах или километрах. При видимости от 1 до 10 км при отсутствии осадков обычно наблюдается дымка, при ухудшении видимости до 1 км и менее - туман. В сухую погоду видимость может ухудшаться дымом, пылью или мглою.
Явления - указаны атмосферные явления, наблюдавшиеся в срок или в последний час перед сроком; фигурными скобками обозначены явления, наблюдавшиеся между сроками (за 1-3 часа до срока); квадратными скобками обозначены град или гололедные отложения с указанием их диаметра в мм.
Облачность - указаны через наклонную черту общая и нижняя облачность в баллах и высота нижней границы облаков в метрах; квадратными скобками обозначены формы облаков: Ci - перистые, Cs - перисто-слоистые, Cc - перисто-кучевые, Ac - высококучевые, As - высокослоистые, Sc - слоисто-кучевые, Ns - слоисто-дождевые, Cu - кучевые, Cb - кучево-дождевые. Подробнее классификацию облаков см. в Атласе облаков (PDF).
T - Температура воздуха - температура, измеренная на высоте 2 м над землей.
Td - Температура точки росы - температура, при понижении до которой содержащийся в воздухе водяной пар достигнет насыщения.
f - Относительная влажность воздуха - влажноcть воздуха, измеренная на высоте 2 м над землей.
Te - Эффективная температура - температура, которую ощущает одетый по сезону человек в тени. Характеристика душности погоды. При расчете учитывается влияние влажности воздуха и скорости ветра на теплоощущения человека.
Tes - Эффективная температура на солнце - температура, которую ощущает человек, с поправкой на солнечный нагрев. Характеристика знойности погоды. Зависит от высоты солнца над горизонтом, облачности и скорости ветра. Ночью, в пасмурную погоду, а также при ветре 12 м/с и более поправка равна нулю.
P - Атмосферное давление - приведенное к уровню моря атмосферное давление.
Po - Атмосферное давление - измеренное на уровне метеостанции атмосферное давление.
Tmin - Минимальная температура - минимум температуры воздуха на высоте 2 м над землей.
Tmax - Максимальная температура - максимум температуры воздуха на высоте 2 м над землей.
R - Количество осадков - Количество выпавших осадков за период времени, мм. При наведении курсора мыши на число - период времени, за который выпало указанное количество осадков.
R24 - Количество осадков - Количество выпавших осадков за 24 часа, мм.
S - Снежный покров - Высота снежного покрова, см. При наведении курсора мыши на число - состояние снежного покрова и степень покрытия местности в баллах.